New York Downtown Manhattan/w, NY

8:19 PM EDT on September 20, 2019 (GMT -0400)
New York Downtown Manhattan/w

Weather History for KJRB - May, 2019

Change the Weather History Date:

Friday, May 3, 2019

  Actual Average (WUND) Record (WUND)
Temperature  
Mean Temperature 53 °F -  
Max Temperature 55 °F - - (-1)
Min Temperature 51 °F - - (-1)
Degree Days  
Heating Degree Days 12    
Growing Degree Days 3 (Base 50)    
Moisture  
Dew Point 50 °F    
Average Humidity 89    
Maximum Humidity 94    
Minimum Humidity 83    
Precipitation  
Precipitation 0.00 in - - ()
Sea Level Pressure  
Sea Level Pressure 30.09 in    
Wind  
Wind Speed 7 mph (NE)    
Max Wind Speed 10 mph    
Max Gust Speed -    
Visibility 8 miles    
Events Thunderstorm    
Averages and records for this station are not official NWS values.
T = Trace of Precipitation, MM = Missing Value Source: NWS Daily Summary

Daily Weather History Graph

Daily Weather History Graph

Search for Another Location

Airport or City:

Astronomy

May. 03, 2019 Rise Set
Actual Time 5:52 AM EDT 7:54 PM EDT
Civil Twilight 5:22 AM EDT 8:23 PM EDT
Nautical Twilight 4:46 AM EDT 9:00 PM EDT
Astronomical Twilight 4:06 AM EDT 9:40 PM EDT
Moon 5:33 AM EDT (5/3) 6:38 PM EDT (5/3)
Length of Visible Light 15h 01m
Length of Day
14h 01m
Waning Crescent, 2% of the Moon is Illuminated
May 3
Waning Crescent
May 4
New
May 11
First Quarter
May 18
Full
May 26
Last Quarter

Hourly Weather History & Observations

Time (EDT) Temp. Dew Point Humidity Pressure Visibility Wind Dir Wind Speed Gust Speed Precip Events Conditions
12:33 AM 51.8 °F 48.2 °F 88% 30.22 in 10.0 mi ESE 6.9 mph - N/A   Overcast
12:56 AM 51.1 °F 48.9 °F 92% 30.21 in 10.0 mi ENE 6.9 mph - N/A   Overcast
1:56 AM 51.1 °F 48.9 °F 92% 30.19 in 10.0 mi NE 9.2 mph - N/A   Overcast
2:56 AM 51.1 °F 48.0 °F 89% 30.16 in 10.0 mi ENE 10.4 mph - N/A   Overcast
3:56 AM 51.1 °F 46.9 °F 86% 30.16 in 10.0 mi Variable 6.9 mph - N/A   Overcast
4:56 AM 51.1 °F 48.0 °F 89% 30.15 in 10.0 mi East 5.8 mph - N/A   Overcast
5:31 AM 51.8 °F 48.2 °F 88% 30.15 in 9.0 mi East 8.1 mph - N/A   Overcast
5:56 AM 51.1 °F 48.0 °F 89% 30.15 in 8.0 mi East 5.8 mph - N/A   Overcast
6:56 AM 51.1 °F 48.0 °F 89% 30.15 in 6.0 mi ENE 9.2 mph - N/A   Overcast
7:56 AM 51.1 °F 48.0 °F 89% 30.14 in 9.0 mi East 8.1 mph - N/A   Overcast
8:56 AM 52.0 °F 48.0 °F 86% 30.15 in 9.0 mi NE 8.1 mph - N/A   Overcast
9:56 AM 52.0 °F 48.9 °F 89% 30.14 in 6.0 mi ENE 5.8 mph - N/A   Overcast
10:56 AM 53.1 °F 48.9 °F 86% 30.14 in 9.0 mi NE 5.8 mph - N/A   Overcast
11:56 AM 54.0 °F 50.0 °F 86% 30.13 in 10.0 mi NE 4.6 mph - N/A   Overcast
12:25 PM 53.6 °F 50.0 °F 88% 30.12 in 10.0 mi NNE 5.8 mph - N/A   Overcast
12:56 PM 54.0 °F 50.0 °F 86% 30.11 in 10.0 mi NNE 6.9 mph - N/A   Overcast
1:56 PM 55.0 °F 50.0 °F 83% 30.10 in 9.0 mi NE 6.9 mph - N/A   Overcast
2:56 PM 55.0 °F 51.1 °F 86% 30.07 in 6.0 mi NE 8.1 mph - 0.00 in   Overcast
3:56 PM 55.9 °F 51.1 °F 84% 30.04 in 7.0 mi NE 6.9 mph - N/A   Overcast
4:56 PM 55.9 °F 51.1 °F 84% 30.03 in 6.0 mi ENE 5.8 mph - N/A   Haze
5:56 PM 55.0 °F 51.1 °F 86% 30.02 in 6.0 mi NE 5.8 mph - N/A   Overcast
6:56 PM 54.0 °F 51.1 °F 90% 30.00 in 5.0 mi ENE 5.8 mph - N/A   Overcast
7:56 PM 54.0 °F 51.1 °F 90% 30.01 in 4.0 mi ENE 5.8 mph - N/A   Overcast
8:19 PM 53.6 °F 51.8 °F 94% 30.01 in 5.0 mi NE 5.8 mph - N/A   Overcast
8:56 PM 53.1 °F 51.1 °F 93% 30.01 in 5.0 mi NE 5.8 mph - N/A   Overcast
9:33 PM 53.6 °F 51.8 °F 94% 30.00 in 5.0 mi ENE 5.8 mph - N/A   Overcast
9:46 PM 53.6 °F 51.8 °F 94% 30.01 in 6.0 mi NE 6.9 mph - N/A   Overcast
9:56 PM 53.1 °F 51.1 °F 93% 30.01 in 6.0 mi NE 6.9 mph - N/A   Overcast
10:56 PM 53.1 °F 51.1 °F 93% 30.00 in 5.0 mi ENE 6.9 mph - N/A   Overcast
11:37 PM 53.6 °F 51.8 °F 94% 29.99 in 6.0 mi NE 5.8 mph - N/A Thunderstorm Overcast
11:49 PM 53.6 °F 51.8 °F 94% 29.99 in 6.0 mi NNE 5.8 mph - N/A Thunderstorm Overcast
11:56 PM 53.1 °F 51.1 °F 93% 29.99 in 6.0 mi NE 5.8 mph - N/A Thunderstorm Overcast